Home > Time Zones > World Clock > Weather > Japan > Tokyo > Past weeks

Flag for Japan Weather past 2 weeks in Tokyo, Japan

Now
69 °F

Mild.


Feels Like: 69 °F
Forecast: 70 / 76 °F
Wind: 3 mph from North

Location: Tokyo

Current Time: Jul 2, 2015 at 12:58:06 AM

Latest Report: Jul 2, 2015 at 12:00 AM


Visibility: N/A

Pressure: 29.44 "Hg

Humidity: 98%

Dew point: 69 °F

Location of TokyoLocation

Historic Weather in Tokyo — Graph

°F

Tokyo temperature yesterday

Maximum temperature yesterday: 72 °F (at 1:00 PM)
Minimum temperature yesterday: 67 °F (at 7:00 AM)
Average temperature yesterday: 69 °F

Past Weeks' High & Low Weather Summary

 TemperatureHumidityPressure
High85 °F (Jun 28, 1:00 PM)100% (Jun 17, 1:00 AM)29.93 "Hg (Jun 17, 1:00 AM)
Low64 °F (Jun 19, 7:00 PM)38% (Jun 28, 10:00 AM)29.26 "Hg (Jul 1, 1:00 PM)
Average72 °F80%29.73 "Hg
* Reported Jun 16 11:00 PM — Jul 1 11:00 PM, Tokyo, Weather by CustomWeather, © 2015

Note: Actual official high and low records may vary slightly from our data, if they occured in-between our weather recording intervals... More about our weather records

Advertising

Tokyo weather history for previous 24 hours

 ConditionsComfort  
Time TempWeatherWind HumidityBarometerVisibility
11:00 PM
Wed, Jul 1
70 °FMild.3 mph96%29.41 "HgN/A
10:00 PM69 °FMild.2 mph99%29.41 "HgN/A
9:00 PM69 °FSprinkles. Overcast.3 mph99%29.38 "Hg9 mi
8:00 PM69 °FMild.2 mph99%29.35 "HgN/A
7:00 PM70 °FMild.2 mph99%29.32 "HgN/A
6:00 PM69 °FOvercast.3 mph95%29.29 "Hg6 mi
5:00 PM69 °FMild.3 mph98%29.26 "HgN/A
4:00 PM69 °FMild.7 mph98%29.26 "HgN/A
3:00 PM69 °FSprinkles. Low clouds.6 mph99%29.26 "Hg3 mi
2:00 PM71 °FMild.7 mph99%29.26 "HgN/A
1:00 PM72 °FMild.2 mph99%29.26 "HgN/A
11:00 AM70 °FMild.6 mph98%29.29 "HgN/A
10:00 AM68 °FMild.5 mph99%29.35 "HgN/A
9:00 AM68 °FSprinkles. Low clouds.7 mph99%29.35 "Hg2 mi
8:00 AM67 °FMild.7 mph99%29.41 "HgN/A
7:00 AM67 °FMild.6 mph98%29.41 "HgN/A
6:00 AM67 °FLight rain. Overcast.6 mph97%29.44 "Hg2 mi
5:00 AM68 °FMild.6 mph98%29.44 "HgN/A
4:00 AM68 °FMild.9 mph97%29.47 "HgN/A
3:00 AM68 °FLight rain. Overcast.6 mph97%29.47 "Hg6 mi
1:00 AM68 °FMild.6 mph97%29.53 "HgN/A
Weather by CustomWeather, © 2015

See weather overviewHow to use our weather pages